owner,sensor,date,latitude,longitude,vertical_datum,direction_of_sea_water_velocity,sea_water_speed,upward_sea_water_velocity,qcFlag 
TABS,ioos:station:wmo:42050:1,2009-06-01T00:00:00Z,28.8425,-94.2433,2.0,108.3791028,25.97496102,-99999.0,'11111222,11111222,99999999' 
TABS,ioos:station:wmo:42050:1,2009-06-01T00:30:00Z,28.8425,-94.2433,2.0,155.3240111,27.40225538,-99999.0,'11111222,11111222,99999999' 
TABS,ioos:station:wmo:42050:1,2009-06-01T01:00:00Z,28.8425,-94.2433,2.0,168.1952153,27.03169436,-99999.0,'11111222,11111222,99999999' 
TABS,ioos:station:wmo:42050:1,2009-06-01T01:30:00Z,28.8425,-94.2433,2.0,129.0018602,29.03009645,-99999.0,'11111222,11111222,99999999' 
TABS,ioos:station:wmo:42050:1,2009-06-01T02:00:00Z,28.8425,-94.2433,2.0,145.7583483,38.90292663,-99999.0,'11111222,11111222,99999999' 
TABS,ioos:station:wmo:42050:1,2009-06-01T02:30:00Z,28.8425,-94.2433,2.0,102.1334645,36.15774468,-99999.0,'11111222,11111222,99999999' 
TABS,ioos:station:wmo:42050:1,2009-06-01T03:00:00Z,28.8425,-94.2433,2.0,147.8692598,40.25563563,-99999.0,'11111222,11111222,99999999' 
TABS,ioos:station:wmo:42050:1,2009-06-01T03:30:00Z,28.8425,-94.2433,2.0,129.1572501,33.27251268,-99999.0,'11111222,11111222,99999999' 
TABS,ioos:station:wmo:42050:1,2009-06-01T04:00:00Z,28.8425,-94.2433,2.0,288.5369746,10.69483988,-99999.0,'11111222,11111222,99999999' 
TABS,ioos:station:wmo:42050:1,2009-06-01T04:30:00Z,28.8425,-94.2433,2.0,167.3028508,21.06512283,-99999.0,'11111222,11111222,99999999' 
TABS,ioos:station:wmo:42050:1,2009-06-01T05:00:00Z,28.8425,-94.2433,2.0,238.0974288,31.20320817,-99999.0,'11111222,11111222,99999999' 
TABS,ioos:station:wmo:42050:1,2009-06-01T05:30:00Z,28.8425,-94.2433,2.0,280.697659,24.9434761,-99999.0,'11111222,11111222,99999999' 
TABS,ioos:station:wmo:42050:1,2009-06-01T06:00:00Z,28.8425,-94.2433,2.0,293.5642952,38.09670983,-99999.0,'11111222,11111222,99999999' 
TABS,ioos:station:wmo:42050:1,2009-06-01T06:30:00Z,28.8425,-94.2433,2.0,287.0811463,11.50758011,-99999.0,'11111222,11111222,99999999' 
TABS,ioos:station:wmo:42050:1,2009-06-01T07:00:00Z,28.8425,-94.2433,2.0,305.3868887,50.68298432,-99999.0,'11111222,11111222,99999999' 
TABS,ioos:station:wmo:42050:1,2009-06-01T07:30:00Z,28.8425,-94.2433,2.0,261.128118,63.61099433,-99999.0,'11111222,11111222,99999999' 
TABS,ioos:station:wmo:42050:1,2009-06-01T08:00:00Z,28.8425,-94.2433,2.0,281.6030506,71.39897198,-99999.0,'11111222,11111222,99999999' 
TABS,ioos:station:wmo:42050:1,2009-06-01T08:30:00Z,28.8425,-94.2433,2.0,263.4589804,47.67026851,-99999.0,'11111222,11111222,99999999' 
TABS,ioos:station:wmo:42050:1,2009-06-01T09:00:00Z,28.8425,-94.2433,2.0,279.512808,71.4626231,-99999.0,'11111222,11111222,99999999' 
TABS,ioos:station:wmo:42050:1,2009-06-01T09:30:00Z,28.8425,-94.2433,2.0,284.7481112,56.05673019,-99999.0,'11111222,11111222,99999999' 
TABS,ioos:station:wmo:42050:1,2009-06-01T10:00:00Z,28.8425,-94.2433,2.0,245.8628245,33.03850178,-99999.0,'11111222,11111222,99999999' 
TABS,ioos:station:wmo:42050:1,2009-06-01T10:30:00Z,28.8425,-94.2433,2.0,252.2250313,32.10241268,-99999.0,'11111222,11111222,99999999' 
TABS,ioos:station:wmo:42050:1,2009-06-01T11:00:00Z,28.8425,-94.2433,2.0,223.5800736,30.82517478,-99999.0,'11111222,11111222,99999999' 
TABS,ioos:station:wmo:42050:1,2009-06-01T11:30:00Z,28.8425,-94.2433,2.0,247.5031602,17.14465514,-99999.0,'11111222,11111222,99999999' 
TABS,ioos:station:wmo:42050:1,2009-06-01T12:00:00Z,28.8425,-94.2433,2.0,258.2600405,21.96954711,-99999.0,'11111222,11111222,99999999' 
TABS,ioos:station:wmo:42050:1,2009-06-01T12:30:00Z,28.8425,-94.2433,2.0,212.4790318,27.03935095,-99999.0,'11111222,11111222,99999999' 
TABS,ioos:station:wmo:42050:1,2009-06-01T13:00:00Z,28.8425,-94.2433,2.0,302.7333292,61.43607084,-99999.0,'11111222,11111222,99999999' 
TABS,ioos:station:wmo:42050:1,2009-06-01T13:30:00Z,28.8425,-94.2433,2.0,264.2958259,41.75673598,-99999.0,'11111222,11111222,99999999' 
TABS,ioos:station:wmo:42050:1,2009-06-01T14:00:00Z,28.8425,-94.2433,2.0,242.368841,38.22995946,-99999.0,'11111222,11111222,99999999' 
TABS,ioos:station:wmo:42050:1,2009-06-01T14:30:00Z,28.8425,-94.2433,2.0,110.4715724,32.56673456,-99999.0,'11111222,11111222,99999999' 
TABS,ioos:station:wmo:42050:1,2009-06-01T15:00:00Z,28.8425,-94.2433,2.0,120.3240994,82.80982128,-99999.0,'11111222,11111222,99999999' 
TABS,ioos:station:wmo:42050:1,2009-06-01T15:30:00Z,28.8425,-94.2433,2.0,124.3748654,69.14554577,-99999.0,'11111222,11111222,99999999' 
TABS,ioos:station:wmo:42050:1,2009-06-01T16:00:00Z,28.8425,-94.2433,2.0,117.0593966,26.95009462,-99999.0,'11111222,11111222,99999999' 
TABS,ioos:station:wmo:42050:1,2009-06-01T16:30:00Z,28.8425,-94.2433,2.0,124.0764264,81.01025923,-99999.0,'11111222,11111222,99999999' 
TABS,ioos:station:wmo:42050:1,2009-06-01T17:00:00Z,28.8425,-94.2433,2.0,132.5767201,65.22528497,-99999.0,'11111222,11111222,99999999' 
TABS,ioos:station:wmo:42050:1,2009-06-01T17:30:00Z,28.8425,-94.2433,2.0,230.0542511,80.25759653,-99999.0,'11111222,11111222,99999999' 
TABS,ioos:station:wmo:42050:1,2009-06-01T18:00:00Z,28.8425,-94.2433,2.0,246.9174569,140.2368728,-99999.0,'11111222,11111222,99999999' 
TABS,ioos:station:wmo:42050:1,2009-06-01T18:30:00Z,28.8425,-94.2433,2.0,240.8985782,119.7692991,-99999.0,'11111222,11111222,99999999' 
TABS,ioos:station:wmo:42050:1,2009-06-01T19:00:00Z,28.8425,-94.2433,2.0,250.1546187,149.5830819,-99999.0,'11111222,11111222,99999999' 
TABS,ioos:station:wmo:42050:1,2009-06-01T19:30:00Z,28.8425,-94.2433,2.0,237.2990081,125.4419647,-99999.0,'11111222,11111222,99999999' 
TABS,ioos:station:wmo:42050:1,2009-06-01T20:00:00Z,28.8425,-94.2433,2.0,243.5897758,112.2778571,-99999.0,'11111222,11111222,99999999' 
TABS,ioos:station:wmo:42050:1,2009-06-01T20:30:00Z,28.8425,-94.2433,2.0,245.2450008,119.0495468,-99999.0,'11111222,11111222,99999999' 
TABS,ioos:station:wmo:42050:1,2009-06-01T21:00:00Z,28.8425,-94.2433,2.0,235.8720083,94.05770835,-99999.0,'11111222,11111222,99999999' 
TABS,ioos:station:wmo:42050:1,2009-06-01T21:30:00Z,28.8425,-94.2433,2.0,242.7512184,118.4887256,-99999.0,'11111222,11111222,99999999' 
TABS,ioos:station:wmo:42050:1,2009-06-01T22:00:00Z,28.8425,-94.2433,2.0,239.8929001,93.67786131,-99999.0,'11111222,11111222,99999999' 
TABS,ioos:station:wmo:42050:1,2009-06-01T22:30:00Z,28.8425,-94.2433,2.0,232.0757601,87.30677236,-99999.0,'11111222,11111222,99999999' 
TABS,ioos:station:wmo:42050:1,2009-06-01T23:00:00Z,28.8425,-94.2433,2.0,189.5608821,46.71897366,-99999.0,'11111222,11111222,99999999' 
TABS,ioos:station:wmo:42050:1,2009-06-01T23:30:00Z,28.8425,-94.2433,2.0,139.3632906,61.61910824,-99999.0,'11111222,11111222,99999999' 
TABS,ioos:station:wmo:42050:1,2009-06-02T00:00:00Z,28.8425,-94.2433,2.0,194.51729,53.41550524,-99999.0,'11111222,11111222,99999999' 
TABS,ioos:station:wmo:42050:1,2009-06-02T00:30:00Z,28.8425,-94.2433,2.0,116.9385014,26.06863441,-99999.0,'11111222,11111222,99999999' 
TABS,ioos:station:wmo:42050:1,2009-06-02T04:00:00Z,28.8425,-94.2433,2.0,116.9385014,26.06863441,-99999.0,'11111222,11111222,99999999' 
TABS,ioos:station:wmo:42050:1,2009-06-02T04:30:00Z,28.8425,-94.2433,2.0,154.9737771,75.43189379,-99999.0,'11111222,11111222,99999999' 
TABS,ioos:station:wmo:42050:1,2009-06-02T05:00:00Z,28.8425,-94.2433,2.0,242.9596635,126.78941,-99999.0,'11111222,11111222,99999999' 
TABS,ioos:station:wmo:42050:1,2009-06-02T05:30:00Z,28.8425,-94.2433,2.0,285.875849,31.51191045,-99999.0,'11111222,11111222,99999999' 
TABS,ioos:station:wmo:42050:1,2009-06-02T06:00:00Z,28.8425,-94.2433,2.0,239.6452061,26.93194572,-99999.0,'11111222,11111222,99999999' 
TABS,ioos:station:wmo:42050:1,2009-06-02T06:30:00Z,28.8425,-94.2433,2.0,260.0981217,36.46312247,-99999.0,'11111222,11111222,99999999' 
TABS,ioos:station:wmo:42050:1,2009-06-02T07:00:00Z,28.8425,-94.2433,2.0,234.0434106,31.98406635,-99999.0,'11111222,11111222,99999999' 
TABS,ioos:station:wmo:42050:1,2009-06-02T07:30:00Z,28.8425,-94.2433,2.0,243.0206612,37.14205837,-99999.0,'11111222,11111222,99999999' 
TABS,ioos:station:wmo:42050:1,2009-06-02T08:00:00Z,28.8425,-94.2433,2.0,216.3215357,24.46311918,-99999.0,'11111222,11111222,99999999' 
TABS,ioos:station:wmo:42050:1,2009-06-02T08:30:00Z,28.8425,-94.2433,2.0,236.1409502,33.92283744,-99999.0,'11111222,11111222,99999999' 
TABS,ioos:station:wmo:42050:1,2009-06-02T09:00:00Z,28.8425,-94.2433,2.0,225.31151,35.08008694,-99999.0,'11111222,11111222,99999999' 
TABS,ioos:station:wmo:42050:1,2009-06-02T09:30:00Z,28.8425,-94.2433,2.0,253.799467,45.41322495,-99999.0,'11111222,11111222,99999999' 
TABS,ioos:station:wmo:42050:1,2009-06-02T10:00:00Z,28.8425,-94.2433,2.0,240.4791484,20.90373412,-99999.0,'11111222,11111222,99999999' 
TABS,ioos:station:wmo:42050:1,2009-06-02T10:30:00Z,28.8425,-94.2433,2.0,203.0223819,27.79376369,-99999.0,'11111222,11111222,99999999' 
TABS,ioos:station:wmo:42050:1,2009-06-02T11:00:00Z,28.8425,-94.2433,2.0,236.5832423,29.61578127,-99999.0,'11111222,11111222,99999999' 
TABS,ioos:station:wmo:42050:1,2009-06-02T11:30:00Z,28.8425,-94.2433,2.0,242.8596274,39.21813484,-99999.0,'11111222,11111222,99999999' 
TABS,ioos:station:wmo:42050:1,2009-06-02T12:00:00Z,28.8425,-94.2433,2.0,194.8046867,16.63216462,-99999.0,'11111222,11111222,99999999' 
TABS,ioos:station:wmo:42050:1,2009-06-02T12:30:00Z,28.8425,-94.2433,2.0,193.0543951,26.47422331,-99999.0,'11111222,11111222,99999999' 
TABS,ioos:station:wmo:42050:1,2009-06-02T13:00:00Z,28.8425,-94.2433,2.0,234.4376875,38.37799891,-99999.0,'11111222,11111222,99999999' 
TABS,ioos:station:wmo:42050:1,2009-06-02T13:30:00Z,28.8425,-94.2433,2.0,234.0590763,22.81300068,-99999.0,'11111222,11111222,99999999' 
TABS,ioos:station:wmo:42050:1,2009-06-02T14:00:00Z,28.8425,-94.2433,2.0,242.3310415,26.70360463,-99999.0,'11111222,11111222,99999999' 
TABS,ioos:station:wmo:42050:1,2009-06-02T14:30:00Z,28.8425,-94.2433,2.0,287.5424095,40.17845443,-99999.0,'11111222,11111222,99999999' 
TABS,ioos:station:wmo:42050:1,2009-06-02T15:00:00Z,28.8425,-94.2433,2.0,286.077873,26.2153333,-99999.0,'11111222,11111222,99999999' 
TABS,ioos:station:wmo:42050:1,2009-06-02T15:30:00Z,28.8425,-94.2433,2.0,309.8000765,25.19893847,-99999.0,'11111222,11111222,99999999' 
TABS,ioos:station:wmo:42050:1,2009-06-02T16:00:00Z,28.8425,-94.2433,2.0,334.0995473,25.45710903,-99999.0,'11111222,11111222,99999999' 
TABS,ioos:station:wmo:42050:1,2009-06-02T16:30:00Z,28.8425,-94.2433,2.0,308.5021839,8.497446675,-99999.0,'11133222,11111222,99999999' 
TABS,ioos:station:wmo:42050:1,2009-06-02T17:00:00Z,28.8425,-94.2433,2.0,300.2374675,29.88603185,-99999.0,'11111222,11111222,99999999' 
TABS,ioos:station:wmo:42050:1,2009-06-02T17:30:00Z,28.8425,-94.2433,2.0,276.1108143,15.97073574,-99999.0,'11111222,11111222,99999999' 
TABS,ioos:station:wmo:42050:1,2009-06-02T18:00:00Z,28.8425,-94.2433,2.0,1.863668129,22.14170951,-99999.0,'11111222,11111222,99999999' 
TABS,ioos:station:wmo:42050:1,2009-06-02T18:30:00Z,28.8425,-94.2433,2.0,292.9088039,11.14937218,-99999.0,'11111222,11111222,99999999' 
TABS,ioos:station:wmo:42050:1,2009-06-02T19:00:00Z,28.8425,-94.2433,2.0,39.64912144,18.27349173,-99999.0,'11111222,11111222,99999999' 
TABS,ioos:station:wmo:42050:1,2009-06-02T19:30:00Z,28.8425,-94.2433,2.0,357.7481714,21.37651047,-99999.0,'11111222,11111222,99999999' 
TABS,ioos:station:wmo:42050:1,2009-06-02T20:30:00Z,28.8425,-94.2433,2.0,312.5820271,18.76918752,-99999.0,'11111222,11111222,99999999' 
TABS,ioos:station:wmo:42050:1,2009-06-02T21:00:00Z,28.8425,-94.2433,2.0,269.1779659,36.26372843,-99999.0,'11111222,11111222,99999999' 
TABS,ioos:station:wmo:42050:1,2009-06-02T21:30:00Z,28.8425,-94.2433,2.0,282.4033297,42.46098562,-99999.0,'11111222,11111222,99999999' 
TABS,ioos:station:wmo:42050:1,2009-06-02T22:00:00Z,28.8425,-94.2433,2.0,293.8423831,37.18307411,-99999.0,'11111222,11111222,99999999' 
TABS,ioos:station:wmo:42050:1,2009-06-02T22:30:00Z,28.8425,-94.2433,2.0,289.3401702,49.46102809,-99999.0,'11111222,11111222,99999999' 
TABS,ioos:station:wmo:42050:1,2009-06-02T23:00:00Z,28.8425,-94.2433,2.0,290.3914241,50.39812695,-99999.0,'11111222,11111222,99999999' 
TABS,ioos:station:wmo:42050:1,2009-06-02T23:30:00Z,28.8425,-94.2433,2.0,312.8725075,40.18430166,-99999.0,'11111222,11111222,99999999' 
TABS,ioos:station:wmo:42050:1,2009-06-03T00:00:00Z,28.8425,-94.2433,2.0,288.2925637,30.45915298,-99999.0,'11111222,11111222,99999999' 
TABS,ioos:station:wmo:42050:1,2009-06-03T00:30:00Z,28.8425,-94.2433,2.0,310.3175192,29.96822651,-99999.0,'11111222,11111222,99999999' 
TABS,ioos:station:wmo:42050:1,2009-06-03T01:00:00Z,28.8425,-94.2433,2.0,316.9618312,27.06269203,-99999.0,'11111222,11111222,99999999' 
TABS,ioos:station:wmo:42050:1,2009-06-03T01:30:00Z,28.8425,-94.2433,2.0,267.7584359,43.98364355,-99999.0,'11111222,11111222,99999999' 
TABS,ioos:station:wmo:42050:1,2009-06-03T02:00:00Z,28.8425,-94.2433,2.0,277.1161344,38.26471612,-99999.0,'11111222,11111222,99999999' 
TABS,ioos:station:wmo:42050:1,2009-06-03T02:30:00Z,28.8425,-94.2433,2.0,277.5546044,24.34125921,-99999.0,'11111222,11111222,99999999' 
TABS,ioos:station:wmo:42050:1,2009-06-03T03:00:00Z,28.8425,-94.2433,2.0,296.0653114,38.94037108,-99999.0,'11111222,11111222,99999999' 
TABS,ioos:station:wmo:42050:1,2009-06-03T03:30:00Z,28.8425,-94.2433,2.0,303.1841018,35.15272393,-99999.0,'11111222,11111222,99999999' 
TABS,ioos:station:wmo:42050:1,2009-06-03T04:00:00Z,28.8425,-94.2433,2.0,264.3493355,31.18149772,-99999.0,'11111222,11111222,99999999' 
TABS,ioos:station:wmo:42050:1,2009-06-03T04:30:00Z,28.8425,-94.2433,2.0,251.6583106,17.41468633,-99999.0,'11111222,11111222,99999999' 
TABS,ioos:station:wmo:42050:1,2009-06-03T05:00:00Z,28.8425,-94.2433,2.0,328.1219724,27.72113273,-99999.0,'11111222,11111222,99999999' 
TABS,ioos:station:wmo:42050:1,2009-06-03T05:30:00Z,28.8425,-94.2433,2.0,228.1728263,30.27523245,-99999.0,'11111222,11111222,99999999' 
TABS,ioos:station:wmo:42050:1,2009-06-03T06:00:00Z,28.8425,-94.2433,2.0,259.0985667,18.13728205,-99999.0,'11111222,11111222,99999999' 
TABS,ioos:station:wmo:42050:1,2009-06-03T06:30:00Z,28.8425,-94.2433,2.0,338.0356527,25.42550884,-99999.0,'11111222,11111222,99999999' 
TABS,ioos:station:wmo:42050:1,2009-06-03T07:00:00Z,28.8425,-94.2433,2.0,278.0058132,12.99665342,-99999.0,'11111222,11111222,99999999' 
TABS,ioos:station:wmo:42050:1,2009-06-03T07:30:00Z,28.8425,-94.2433,2.0,248.6053871,28.48267017,-99999.0,'11111222,11111222,99999999' 
TABS,ioos:station:wmo:42050:1,2009-06-03T08:00:00Z,28.8425,-94.2433,2.0,332.9090709,13.63611748,-99999.0,'11111222,11111222,99999999' 
TABS,ioos:station:wmo:42050:1,2009-06-03T08:30:00Z,28.8425,-94.2433,2.0,324.8310526,22.77803328,-99999.0,'11111222,11111222,99999999' 
TABS,ioos:station:wmo:42050:1,2009-06-03T09:00:00Z,28.8425,-94.2433,2.0,325.2247796,11.27353095,-99999.0,'11111222,11111222,99999999' 
TABS,ioos:station:wmo:42050:1,2009-06-03T09:30:00Z,28.8425,-94.2433,2.0,270.5917357,35.85190929,-99999.0,'11111222,11111222,99999999' 
TABS,ioos:station:wmo:42050:1,2009-06-03T10:00:00Z,28.8425,-94.2433,2.0,299.5781904,18.29396075,-99999.0,'11111222,11111222,99999999' 
TABS,ioos:station:wmo:42050:1,2009-06-03T10:30:00Z,28.8425,-94.2433,2.0,316.900089,11.51802935,-99999.0,'11111222,11111222,99999999' 
TABS,ioos:station:wmo:42050:1,2009-06-03T11:00:00Z,28.8425,-94.2433,2.0,236.866572,21.11288706,-99999.0,'11111222,11111222,99999999' 
TABS,ioos:station:wmo:42050:1,2009-06-03T11:30:00Z,28.8425,-94.2433,2.0,325.4529421,22.80073025,-99999.0,'11111222,11111222,99999999' 
TABS,ioos:station:wmo:42050:1,2009-06-03T12:00:00Z,28.8425,-94.2433,2.0,253.9122721,18.29648327,-99999.0,'11111222,11111222,99999999' 
TABS,ioos:station:wmo:42050:1,2009-06-03T12:30:00Z,28.8425,-94.2433,2.0,244.9307779,11.989412,-99999.0,'11111222,11111222,99999999' 
TABS,ioos:station:wmo:42050:1,2009-06-03T13:00:00Z,28.8425,-94.2433,2.0,228.689479,16.48146838,-99999.0,'11111222,11111222,99999999' 
TABS,ioos:station:wmo:42050:1,2009-06-03T13:30:00Z,28.8425,-94.2433,2.0,215.3787385,21.83139024,-99999.0,'11111222,11111222,99999999' 
TABS,ioos:station:wmo:42050:1,2009-06-03T14:00:00Z,28.8425,-94.2433,2.0,252.5660592,20.6275253,-99999.0,'11111222,11111222,99999999' 
TABS,ioos:station:wmo:42050:1,2009-06-03T14:30:00Z,28.8425,-94.2433,2.0,293.9390105,9.759508184,-99999.0,'11133222,11111222,99999999' 
TABS,ioos:station:wmo:42050:1,2009-06-03T15:00:00Z,28.8425,-94.2433,2.0,266.8496711,39.30938946,-99999.0,'11111222,11111222,99999999' 
TABS,ioos:station:wmo:42050:1,2009-06-03T15:30:00Z,28.8425,-94.2433,2.0,283.5444085,53.07602943,-99999.0,'11111222,11111222,99999999' 
TABS,ioos:station:wmo:42050:1,2009-06-03T16:00:00Z,28.8425,-94.2433,2.0,269.0716882,21.61283415,-99999.0,'11111222,11111222,99999999' 
TABS,ioos:station:wmo:42050:1,2009-06-03T16:30:00Z,28.8425,-94.2433,2.0,286.0954915,32.06693312,-99999.0,'11111222,11111222,99999999' 
TABS,ioos:station:wmo:42050:1,2009-06-03T17:00:00Z,28.8425,-94.2433,2.0,316.3069882,54.57455085,-99999.0,'11111222,11111222,99999999' 
TABS,ioos:station:wmo:42050:1,2009-06-03T17:30:00Z,28.8425,-94.2433,2.0,251.544152,35.31631917,-99999.0,'11111222,11111222,99999999' 
TABS,ioos:station:wmo:42050:1,2009-06-03T18:00:00Z,28.8425,-94.2433,2.0,315.7161853,35.08937731,-99999.0,'11111222,11111222,99999999' 
TABS,ioos:station:wmo:42050:1,2009-06-03T18:30:00Z,28.8425,-94.2433,2.0,300.202537,28.1282527,-99999.0,'11111222,11111222,99999999' 
TABS,ioos:station:wmo:42050:1,2009-06-03T19:00:00Z,28.8425,-94.2433,2.0,346.3339423,3.005079034,-99999.0,'11133222,11111222,99999999' 
TABS,ioos:station:wmo:42050:1,2009-06-03T19:30:00Z,28.8425,-94.2433,2.0,131.4941341,36.88808073,-99999.0,'11111222,11111222,99999999' 
TABS,ioos:station:wmo:42050:1,2009-06-03T20:00:00Z,28.8425,-94.2433,2.0,125.6658218,18.18001375,-99999.0,'11111222,11111222,99999999' 
TABS,ioos:station:wmo:42050:1,2009-06-03T20:30:00Z,28.8425,-94.2433,2.0,246.6815358,23.29249879,-99999.0,'11111222,11111222,99999999' 
TABS,ioos:station:wmo:42050:1,2009-06-03T21:00:00Z,28.8425,-94.2433,2.0,154.2211088,18.90102643,-99999.0,'11111222,11111222,99999999' 
TABS,ioos:station:wmo:42050:1,2009-06-03T21:30:00Z,28.8425,-94.2433,2.0,164.725795,31.88632309,-99999.0,'11111222,11111222,99999999' 
TABS,ioos:station:wmo:42050:1,2009-06-03T22:00:00Z,28.8425,-94.2433,2.0,200.6394061,32.8804045,-99999.0,'11111222,11111222,99999999' 
TABS,ioos:station:wmo:42050:1,2009-06-03T22:30:00Z,28.8425,-94.2433,2.0,117.6108728,44.83616063,-99999.0,'11111222,11111222,99999999' 
TABS,ioos:station:wmo:42050:1,2009-06-03T23:00:00Z,28.8425,-94.2433,2.0,218.4916023,31.44259849,-99999.0,'11111222,11111222,99999999' 
TABS,ioos:station:wmo:42050:1,2009-06-03T23:30:00Z,28.8425,-94.2433,2.0,154.2656375,35.46776706,-99999.0,'11111222,11111222,99999999' 
TABS,ioos:station:wmo:42050:1,2009-06-04T00:00:00Z,28.8425,-94.2433,2.0,88.57461209,34.1705736,-99999.0,'11111222,11111222,99999999' 
TABS,ioos:station:wmo:42050:1,2009-06-04T00:30:00Z,28.8425,-94.2433,2.0,112.9420271,30.50279004,-99999.0,'11111222,11111222,99999999' 
TABS,ioos:station:wmo:42050:1,2009-06-04T01:00:00Z,28.8425,-94.2433,2.0,145.978412,22.53784595,-99999.0,'11111222,11111222,99999999' 
TABS,ioos:station:wmo:42050:1,2009-06-04T01:30:00Z,28.8425,-94.2433,2.0,110.4042958,22.54454479,-99999.0,'11111222,11111222,99999999' 
TABS,ioos:station:wmo:42050:1,2009-06-04T02:00:00Z,28.8425,-94.2433,2.0,113.8596247,20.3709229,-99999.0,'11111222,11111222,99999999' 
TABS,ioos:station:wmo:42050:1,2009-06-04T02:30:00Z,28.8425,-94.2433,2.0,46.26610127,25.60351538,-99999.0,'11111222,11111222,99999999' 
TABS,ioos:station:wmo:42050:1,2009-06-04T03:00:00Z,28.8425,-94.2433,2.0,22.57254948,10.2123112,-99999.0,'11111222,11111222,99999999' 
TABS,ioos:station:wmo:42050:1,2009-06-04T03:30:00Z,28.8425,-94.2433,2.0,34.65719668,18.07748047,-99999.0,'11111222,11111222,99999999' 
TABS,ioos:station:wmo:42050:1,2009-06-04T04:00:00Z,28.8425,-94.2433,2.0,349.7025638,21.4251091,-99999.0,'11111222,11111222,99999999' 
TABS,ioos:station:wmo:42050:1,2009-06-04T04:30:00Z,28.8425,-94.2433,2.0,95.17026759,30.07235608,-99999.0,'11111222,11111222,99999999' 
TABS,ioos:station:wmo:42050:1,2009-06-04T05:00:00Z,28.8425,-94.2433,2.0,21.75822885,19.63914458,-99999.0,'11111222,11111222,99999999' 
TABS,ioos:station:wmo:42050:1,2009-06-04T05:30:00Z,28.8425,-94.2433,2.0,46.49336856,59.42422149,-99999.0,'11111222,11111222,99999999' 
TABS,ioos:station:wmo:42050:1,2009-06-04T06:00:00Z,28.8425,-94.2433,2.0,53.73141352,39.45417215,-99999.0,'11111222,11111222,99999999' 
TABS,ioos:station:wmo:42050:1,2009-06-04T06:30:00Z,28.8425,-94.2433,2.0,49.36875989,14.4811947,-99999.0,'11111222,11111222,99999999' 
TABS,ioos:station:wmo:42050:1,2009-06-04T07:00:00Z,28.8425,-94.2433,2.0,72.578381,23.24637606,-99999.0,'11111222,11111222,99999999' 
TABS,ioos:station:wmo:42050:1,2009-06-04T07:30:00Z,28.8425,-94.2433,2.0,29.10948925,22.36483847,-99999.0,'11111222,11111222,99999999' 
TABS,ioos:station:wmo:42050:1,2009-06-04T08:00:00Z,28.8425,-94.2433,2.0,62.25361365,37.52472518,-99999.0,'11111222,11111222,99999999' 
TABS,ioos:station:wmo:42050:1,2009-06-04T08:30:00Z,28.8425,-94.2433,2.0,64.8662878,47.08839454,-99999.0,'11111222,11111222,99999999' 
TABS,ioos:station:wmo:42050:1,2009-06-04T09:00:00Z,28.8425,-94.2433,2.0,174.529144,23.2860645,-99999.0,'11111222,11111222,99999999' 
TABS,ioos:station:wmo:42050:1,2009-06-04T09:30:00Z,28.8425,-94.2433,2.0,12.52315547,21.30690968,-99999.0,'11111222,11111222,99999999' 
TABS,ioos:station:wmo:42050:1,2009-06-04T10:00:00Z,28.8425,-94.2433,2.0,332.1715518,18.25075341,-99999.0,'11111222,11111222,99999999' 
TABS,ioos:station:wmo:42050:1,2009-06-04T10:30:00Z,28.8425,-94.2433,2.0,21.55723933,26.9984907,-99999.0,'11111222,11111222,99999999' 
TABS,ioos:station:wmo:42050:1,2009-06-04T11:00:00Z,28.8425,-94.2433,2.0,40.80969393,21.48276519,-99999.0,'11111222,11111222,99999999' 
TABS,ioos:station:wmo:42050:1,2009-06-04T11:30:00Z,28.8425,-94.2433,2.0,345.5890833,32.9879766,-99999.0,'11111222,11111222,99999999' 
TABS,ioos:station:wmo:42050:1,2009-06-04T12:00:00Z,28.8425,-94.2433,2.0,351.0670788,34.71103859,-99999.0,'11111222,11111222,99999999' 
TABS,ioos:station:wmo:42050:1,2009-06-04T12:30:00Z,28.8425,-94.2433,2.0,346.5792564,14.90709898,-99999.0,'11111222,11111222,99999999' 
TABS,ioos:station:wmo:42050:1,2009-06-04T13:00:00Z,28.8425,-94.2433,2.0,78.91465185,47.5369551,-99999.0,'11111222,11111222,99999999' 
TABS,ioos:station:wmo:42050:1,2009-06-04T13:30:00Z,28.8425,-94.2433,2.0,35.98432956,23.41879801,-99999.0,'11111222,11111222,99999999' 
TABS,ioos:station:wmo:42050:1,2009-06-04T14:00:00Z,28.8425,-94.2433,2.0,337.9734128,18.87793421,-99999.0,'11111222,11111222,99999999' 
TABS,ioos:station:wmo:42050:1,2009-06-04T14:30:00Z,28.8425,-94.2433,2.0,110.7793039,15.61574846,-99999.0,'11111222,11111222,99999999' 
TABS,ioos:station:wmo:42050:1,2009-06-04T15:00:00Z,28.8425,-94.2433,2.0,233.4007682,8.034089868,-99999.0,'11133222,11111222,99999999' 
TABS,ioos:station:wmo:42050:1,2009-06-04T15:30:00Z,28.8425,-94.2433,2.0,124.367276,34.49089445,-99999.0,'11111222,11111222,99999999' 
TABS,ioos:station:wmo:42050:1,2009-06-04T16:00:00Z,28.8425,-94.2433,2.0,136.1387248,16.36568361,-99999.0,'11111222,11111222,99999999' 
TABS,ioos:station:wmo:42050:1,2009-06-04T16:30:00Z,28.8425,-94.2433,2.0,205.8390726,33.54371029,-99999.0,'11111222,11111222,99999999' 
TABS,ioos:station:wmo:42050:1,2009-06-04T17:00:00Z,28.8425,-94.2433,2.0,166.1659766,8.238986588,-99999.0,'11133222,11111222,99999999' 
TABS,ioos:station:wmo:42050:1,2009-06-04T17:30:00Z,28.8425,-94.2433,2.0,197.0872394,24.87819326,-99999.0,'11111222,11111222,99999999' 
TABS,ioos:station:wmo:42050:1,2009-06-04T18:00:00Z,28.8425,-94.2433,2.0,190.998106,9.015592049,-99999.0,'11133222,11111222,99999999' 
TABS,ioos:station:wmo:42050:1,2009-06-04T18:30:00Z,28.8425,-94.2433,2.0,122.1352723,9.813485619,-99999.0,'11133222,11111222,99999999' 
TABS,ioos:station:wmo:42050:1,2009-06-04T19:00:00Z,28.8425,-94.2433,2.0,29.85851786,14.40170129,-99999.0,'11111222,11111222,99999999' 
TABS,ioos:station:wmo:42050:1,2009-06-04T19:30:00Z,28.8425,-94.2433,2.0,260.8372535,16.01432484,-99999.0,'11111222,11111222,99999999' 